Погода в Кондао

Вьетнам     8°39′06″N   106°41′47″E
темп.,
°C
ветер,
м/с
пор.,
м/с
влажн.,
%
обл.,
%
осадки,
мм/ч
давл.,
гПа
погр.,
м
13 апреля, вт
вт1301:00+28в568214 0.3 1011636
04:00+28в568387 0.4 1010513
07:00+28в568293 0.9 1012648
10:00+28в458026 0.7 1013578
13:00+28всв4478100 1.8 1011570
16:00+28в447637 0.0 1009658
19:00+28вюв4478100 0.0 1010598
22:00+28юв557824 0.0 1012607
14 апреля, ср
ср1401:00+28юв457780 0.0 1010731
04:00+28юв4578100 0.0 1010668
07:00+28вюв337747 0.0 1012537
10:00+28вюв117667 0.4 1013172
13:00+28всв117397 1.3 1011516
16:00+28юв22715 0.0 1009567
19:00+28ююв33735 0.0 1010521
22:00+28ю3374100 0.0 1011560
15 апреля, чт
чт1501:00+28ю2273100 0.0 1010502
04:00+28ююз227398 0.0 1010481
07:00+28ю117379 0.0 1011441
10:00+28юз227337 0.0 1013541
13:00+28юз117284 0.0 1010553
16:00+28ююз22724 0.0 1008554
19:00+28ю33740 0.0 1010526
22:00+28ю44750 0.0 1011564
16 апреля, пт
пт1601:00+28ю44765 0.0 1010673
04:00+28ю337692 0.0 1010555
07:00+28ююв2276100 0.0 1012615
10:00+28юв2276100 0.0 1012640
13:00+28ююв2274100 0.0 1010679
16:00+28юв2273100 0.0 1009730
19:00+28юв447479 0.0 1010716
22:00+28ююв4474100 0.0 1012742
17 апреля, сб
сб1701:00+27ю3375100 0.3 1012518
04:00+27вюв3275100 0.4 1011538
07:00+27вюв3374100 0.4 1013643
10:00+27в3374100 0.0 1014724
13:00+27в3376100 0.2 1012606
16:00+28всв437077 0.1 1010583
19:00+28всв436484 0.1 1012556
22:00+28в2263100 0.0 1014556